Regional Weather Roundup
Issued by NWS

Home | Current Version | Previous Version | Text Only | Print | Product List | Glossary Off
Versions: 1 2 3 4 5 6 7 8 9 10 11 12 13 14 15 16 17 18 19 20 21 22 23 24 25 26 27 28 29 30 31 32 33 34 35 36 37 38 39 40 41 42 43 44 45 46 47 48 49 50

000
ASUS43 KOAX 021402
RWRNE

WEATHER ROUNDUP FOR NEBRASKA
NATIONAL WEATHER SERVICE OMAHA NE
900 AM CDT THU OCT 02 2014

NOTES: SATELLITE DATA IS BEING USED TO AUGMENT CLOUD COVER ABOVE
       12000 FEET.
       "FAIR" INDICATES FEW OR NO CLOUDS BELOW 12,000 FEET WITH NO
       SIGNIFICANT WEATHER AND/OR OBSTRUCTIONS TO VISIBILITY.

  * THESE STATIONS DO NOT REPORT WEATHER SUCH AS RAIN...SNOW OR FOG.

NEZ001>004-019>022-054>056-021500-
NEBRASKA PANHANDLE

CITY           SKY/WX    TMP DP  RH WIND       PRES   REMARKS
SCOTTSBLUFF    SUNNY     41  40  96 NW6       30.10R
ALLIANCE       SUNNY     41  39  93 W9        30.06R
CHADRON        SUNNY     42  38  85 SW8       30.05S
KIMBALL        SUNNY     41  37  86 W8        30.09S
SIDNEY         SUNNY     43  38  82 NW10      30.09S
$$

NEZ057>060-069>072-079>082-021500-
SOUTHWEST NEBRASKA

CITY           SKY/WX    TMP DP  RH WIND       PRES   REMARKS
NORTH PLATTE   SUNNY     49  45  86 NW8       30.02R
IMPERIAL       SUNNY     48  45  89 NW13      30.05R
LEXINGTON      CLOUDY    53  51  93 NW8       29.98S
MCCOOK         CLOUDY    51  47  86 NW15      30.02R
OGALLALA       SUNNY     48  46  91 NW9       30.05S
$$

NEZ005>010-023>029-035>040-094-021500-
NORTH CENTRAL NEBRASKA

CITY           SKY/WX    TMP DP  RH WIND       PRES   REMARKS
VALENTINE      SUNNY     47  44  90 NW10      29.98S
AINSWORTH      SUNNY     49  46  92 NW8       29.98S
BROKEN BOW     CLOUDY    52  49  89 NW13      29.97R
O`NEILL        LGT RAIN  53  52  98 NW8       29.95R
ORD            CLOUDY    53  50  89 NW9       29.94R
THEDFORD       SUNNY     49  46  90 NW9       30.00S
$$

NEZ041-046>049-061>064-073>077-083>087-021500-
SOUTH CENTRAL NEBRASKA

CITY           SKY/WX    TMP DP  RH WIND       PRES   REMARKS
GRAND ISLAND   CLOUDY    54  51  90 NW14      29.93R
AURORA         LGT RAIN  54  52  95 N10G18    29.88F
HASTINGS       CLOUDY    53  50  89 NW14      29.91F
HEBRON         RAIN      55  52  92 N10G16    29.89S
HOLDREGE       CLOUDY    52  49  91 N7        29.96R
KEARNEY *      CLOUDY    52  48  87 NW13      29.96R
YORK           RAIN      54  54 100 N10       29.91R
$$

NEZ011>018-030>034-042>045-021500-
NORTHEAST NEBRASKA

CITY           SKY/WX    TMP DP  RH WIND       PRES   REMARKS
NORFOLK        CLOUDY    54  52  93 NW13      29.90R
ALBION         CLOUDY    53  50  92 N10       29.93R
BLAIR          CLOUDY    58  55  89 N12G18    29.82R
COLUMBUS *     CLOUDY    54  50  87 NW13      29.90R
FREMONT        LGT RAIN  56  54  91 NW9       29.85S
TEKAMAH        CLOUDY    57  54  89 N13       29.83S
WAYNE          DRIZZLE   54  52  94 N9        29.88S
$$

NEZ050>053-065>068-078-088>093-021500-
SOUTHEAST NEBRASKA

CITY           SKY/WX    TMP DP  RH WIND       PRES   REMARKS
LINCOLN        LGT RAIN  57  53  86 N18       29.84F
OMAHA EPPLEY   CLOUDY    59  56  89 NW14      29.81R
BEATRICE       RAIN      56  55  94 NW14      29.87R
FALLS CITY     CLOUDY    65  64  97 NE9       29.73F
NEBRASKA CITY    N/A    N/A N/A N/A NW6       29.78R
PLATTSMOUTH      N/A     59  58  96 NW10      29.79R FOG
$$

NEZ044-045-051>053-067-021500-
OMAHA AREA

CITY           SKY/WX    TMP DP  RH WIND       PRES   REMARKS
OMAHA EPPLEY   CLOUDY    59  56  89 NW14      29.81R
BLAIR          CLOUDY    58  55  89 N12G18    29.82R
FREMONT        LGT RAIN  56  54  91 NW9       29.85S
MILLARD        CLOUDY    60  56  86 NW12      29.81R
PLATTSMOUTH      N/A     59  58  96 NW10      29.79R FOG
WAHOO          RAIN      56  52  88 W7        29.86R
$$


USA.gov is the U.S. government's official web portal to all federal, state and local government web resources and services.